Weather History for St. Francis, KS

Change the Weather History Date:

Tuesday, March 12, 2013

  Actual Average Record
Temperature  
Mean Temperature 38 °F -  
Max Temperature 49 °F 54 °F 53 °F (2014)
Min Temperature 28 °F 26 °F 26 °F (2014)
Degree Days  
Heating Degree Days 26    
Moisture  
Dew Point 22 °F    
Average Humidity 57    
Maximum Humidity 90    
Minimum Humidity 25    
Precipitation  
Precipitation 0.00 in - - ()
Sea Level Pressure  
Sea Level Pressure 30.24 in    
Wind  
Wind Speed 9 mph (NW)    
Max Wind Speed 17 mph    
Max Gust Speed 23 mph    
Visibility 10 miles    
Events      
Averages and records for this station are not official NWS values.
T = Trace of Precipitation, MM = Missing Value Source: NWS Daily Summary

Daily Weather History Graph

Daily Weather History Graph

Search for Another Location

Airport:

Trip Planner

Search our weather history database for the weather conditions in past years. The results will help you decide how hot, cold, wet, or windy it might be!

Date:

Astronomy

Mar. 12, 2013 Rise Set
Actual Time 8:02 AM CDT 7:51 PM CDT
Civil Twilight 7:36 AM CDT 8:18 PM CDT
Nautical Twilight 7:04 AM CDT 8:49 PM CDT
Astronomical Twilight 6:33 AM CDT 9:21 PM CDT
Moon 8:10 AM CDT (3/12) 9:08 PM CDT (3/12)
Length of Visible Light 12h 42m
Length of Day
11h 48m
New Moon, 1% of the Moon is Illuminated
Mar 12
New Moon
Mar 19
First Quarter
Mar 27
Full
Apr 2
Last Quarter
Apr 10
New

Hourly Weather History & Observations

Time (CDT) Temp. Windchill Dew Point Humidity Pressure Visibility Wind Dir Wind Speed Gust Speed Precip Events Conditions
12:15 AM 36.5 °F 30.3 °F 31.3 °F 81% 30.10 in 10.0 mi West 8.1 mph - N/A   Scattered Clouds
12:35 AM 36.9 °F 29.1 °F 31.1 °F 80% 30.10 in 10.0 mi WNW 11.5 mph - N/A   Scattered Clouds
1:15 AM 35.6 °F 29.2 °F 31.1 °F 84% 30.10 in 10.0 mi WNW 8.1 mph - N/A   Mostly Cloudy
1:35 AM 33.4 °F 27.3 °F 30.2 °F 88% 30.11 in 10.0 mi WNW 6.9 mph - N/A   Scattered Clouds
1:55 AM 34.2 °F 25.7 °F 30.9 °F 88% 30.12 in 10.0 mi WNW 11.5 mph - N/A   Clear
2:15 AM 34.5 °F 25.3 °F 31.1 °F 87% 30.13 in 10.0 mi WNW 13.8 mph 19.6 mph N/A   Clear
2:35 AM 34.3 °F 25.5 °F 30.7 °F 87% 30.13 in 10.0 mi NW 12.7 mph 17.3 mph N/A   Clear
2:55 AM 33.8 °F 24.8 °F 30.2 °F 87% 30.14 in 10.0 mi NW 12.7 mph - N/A   Clear
3:15 AM 34.0 °F 26.0 °F 30.2 °F 86% 30.15 in 10.0 mi NNW 10.4 mph - N/A   Mostly Cloudy
3:35 AM 33.4 °F 25.4 °F 30.0 °F 87% 30.15 in 10.0 mi NW 10.4 mph - N/A   Mostly Cloudy
3:55 AM 32.9 °F 25.9 °F 29.3 °F 87% 30.15 in 10.0 mi NW 8.1 mph - N/A   Clear
4:15 AM 32.0 °F 24.8 °F 28.4 °F 87% 30.15 in 10.0 mi NW 8.1 mph - N/A   Scattered Clouds
4:35 AM 32.2 °F 25.8 °F 29.3 °F 89% 30.15 in 10.0 mi NW 6.9 mph - N/A   Mostly Cloudy
4:55 AM 31.6 °F 27.0 °F 28.2 °F 87% 30.17 in 10.0 mi WNW 4.6 mph - N/A   Mostly Cloudy
5:15 AM 29.8 °F 24.9 °F 27.3 °F 90% 30.17 in 10.0 mi WSW 4.6 mph - N/A   Overcast
5:35 AM 30.2 °F 26.7 °F 27.7 °F 90% 30.18 in 10.0 mi WSW 3.5 mph - N/A   Mostly Cloudy
5:55 AM 32.0 °F - 27.3 °F 83% 30.19 in 10.0 mi Calm Calm - N/A   Overcast
6:15 AM 32.5 °F - 25.9 °F 76% 30.20 in 10.0 mi Calm Calm - N/A   Overcast
6:35 AM 33.3 °F - 25.3 °F 73% 30.21 in 10.0 mi Calm Calm - N/A   Overcast
6:55 AM 33.4 °F 26.6 °F 24.8 °F 71% 30.22 in 10.0 mi NW 8.1 mph - N/A   Overcast
7:15 AM 33.4 °F 25.4 °F 23.0 °F 66% 30.23 in 10.0 mi NNW 10.4 mph - N/A   Overcast
7:35 AM 32.9 °F 25.9 °F 22.1 °F 65% 30.23 in 10.0 mi NNW 8.1 mph - N/A   Overcast
7:55 AM 31.8 °F 25.4 °F 21.4 °F 65% 30.23 in 10.0 mi NW 6.9 mph - N/A   Mostly Cloudy
8:15 AM 30.2 °F 24.3 °F 21.2 °F 69% 30.24 in 10.0 mi WNW 5.8 mph - N/A   Scattered Clouds
8:35 AM 30.6 °F 24.7 °F 23.2 °F 74% 30.26 in 10.0 mi West 5.8 mph - N/A   Mostly Cloudy
9:15 AM 32.0 °F 25.6 °F 24.8 °F 75% 30.28 in 10.0 mi WNW 6.9 mph - N/A   Overcast
9:35 AM 34.2 °F 26.8 °F 24.4 °F 68% 30.29 in 10.0 mi NW 9.2 mph - N/A   Overcast
9:55 AM 34.5 °F 26.2 °F 24.3 °F 66% 30.29 in 10.0 mi NW 11.5 mph - N/A   Overcast
10:15 AM 35.1 °F 26.4 °F 23.9 °F 64% 30.30 in 10.0 mi NW 12.7 mph 18.4 mph N/A   Overcast
10:35 AM 36.7 °F 27.6 °F 23.7 °F 59% 30.30 in 10.0 mi NNW 15.0 mph 21.9 mph N/A   Overcast
10:55 AM 37.8 °F 29.4 °F 23.7 °F 57% 30.31 in 10.0 mi NNW 13.8 mph - N/A   Overcast
11:15 AM 38.8 °F 30.8 °F 23.9 °F 55% 30.31 in 10.0 mi NNW 13.8 mph - N/A   Mostly Cloudy
11:35 AM 38.8 °F 32.1 °F 23.0 °F 53% 30.31 in 10.0 mi NNW 10.4 mph 19.6 mph N/A   Overcast
11:55 AM 40.6 °F 33.8 °F 23.5 °F 51% 30.31 in 10.0 mi NW 11.5 mph 18.4 mph N/A   Mostly Cloudy
12:15 PM 40.5 °F 32.1 °F 21.9 °F 48% 30.31 in 10.0 mi NNW 16.1 mph - N/A   Scattered Clouds
12:35 PM 40.8 °F 33.7 °F 20.3 °F 44% 30.31 in 10.0 mi NNW 12.7 mph 16.1 mph N/A   Scattered Clouds
12:55 PM 40.6 °F 33.4 °F 19.6 °F 43% 30.31 in 10.0 mi NNW 12.7 mph 18.4 mph N/A   Mostly Cloudy
1:15 PM 42.8 °F 36.2 °F 19.4 °F 39% 30.31 in 10.0 mi North 12.7 mph 23.0 mph N/A   Scattered Clouds
1:35 PM 43.9 °F 38.8 °F 19.8 °F 38% 30.30 in 10.0 mi NW 9.2 mph 17.3 mph N/A   Clear
1:55 PM 45.1 °F 37.9 °F 18.7 °F 35% 30.30 in 10.0 mi NW 17.3 mph 20.7 mph N/A   Clear
2:15 PM 45.5 °F 40.8 °F 17.8 °F 33% 30.29 in 10.0 mi NW 9.2 mph - N/A   Scattered Clouds
2:35 PM 45.5 °F 39.6 °F 17.2 °F 32% 30.28 in 10.0 mi NW 12.7 mph - N/A   Scattered Clouds
2:55 PM 46.9 °F - 17.2 °F 31% 30.27 in 10.0 mi WNW 16.1 mph 21.9 mph N/A   Scattered Clouds
3:15 PM 47.1 °F - 17.1 °F 30% 30.26 in 10.0 mi NW 13.8 mph 20.7 mph N/A   Scattered Clouds
3:35 PM 47.3 °F - 15.8 °F 28% 30.26 in 10.0 mi NNW 15.0 mph 21.9 mph N/A   Scattered Clouds
3:55 PM 47.5 °F - 15.6 °F 28% 30.26 in 10.0 mi NNW 11.5 mph 21.9 mph N/A   Scattered Clouds
4:15 PM 48.6 °F - 15.3 °F 26% 30.25 in 10.0 mi NW 10.4 mph 16.1 mph N/A   Mostly Cloudy
4:35 PM 48.7 °F - 14.7 °F 26% 30.25 in 10.0 mi WNW 11.5 mph 21.9 mph N/A   Mostly Cloudy
4:55 PM 48.9 °F - 13.8 °F 25% 30.24 in 10.0 mi NNW 10.4 mph 18.4 mph N/A   Scattered Clouds
5:15 PM 48.7 °F - 14.0 °F 25% 30.24 in 10.0 mi NW 11.5 mph - N/A   Scattered Clouds
5:35 PM 48.7 °F - 13.8 °F 25% 30.24 in 10.0 mi NW 10.4 mph 18.4 mph N/A   Clear
5:55 PM 48.6 °F - 14.2 °F 25% 30.24 in 10.0 mi NNW 6.9 mph - N/A   Clear
6:15 PM 48.7 °F - 14.4 °F 25% 30.23 in 10.0 mi NW 6.9 mph 10.4 mph N/A   Clear
6:35 PM 48.2 °F - 15.1 °F 27% 30.23 in 10.0 mi NW 13.8 mph 17.3 mph N/A   Clear
6:55 PM 47.3 °F - 14.4 °F 27% 30.23 in 10.0 mi NW 6.9 mph - N/A   Clear
7:15 PM 45.9 °F 41.7 °F 15.4 °F 30% 30.24 in 10.0 mi NW 8.1 mph - N/A   Clear
7:35 PM 43.5 °F - 14.4 °F 31% 30.24 in 10.0 mi Calm Calm - N/A   Clear
7:55 PM 42.6 °F - 15.1 °F 33% 30.25 in 10.0 mi Calm Calm - N/A   Clear
8:15 PM 42.4 °F - 16.9 °F 36% 30.26 in 10.0 mi Calm Calm - N/A   Scattered Clouds
8:35 PM 41.0 °F 39.0 °F 21.2 °F 45% 30.26 in 10.0 mi WNW 3.5 mph - N/A   Clear
8:55 PM 40.8 °F 38.8 °F 22.1 °F 47% 30.26 in 10.0 mi West 3.5 mph - N/A   Scattered Clouds
9:15 PM 40.1 °F - 22.8 °F 50% 30.27 in 10.0 mi Calm Calm - N/A   Clear
9:35 PM 40.1 °F 38.0 °F 22.3 °F 49% 30.28 in 10.0 mi North 3.5 mph - N/A   Clear
9:55 PM 36.9 °F - 22.6 °F 56% 30.27 in 10.0 mi Calm Calm - N/A   Clear
10:15 PM 34.5 °F - 22.6 °F 62% 30.28 in 10.0 mi Calm Calm - N/A   Clear
10:35 PM 35.1 °F - 23.0 °F 61% 30.28 in 10.0 mi Calm Calm - N/A   Clear
10:55 PM 31.8 °F 28.5 °F 22.6 °F 69% 30.29 in 10.0 mi South 3.5 mph - N/A   Clear
11:15 PM 30.4 °F 24.5 °F 22.1 °F 71% 30.28 in 10.0 mi SE 5.8 mph - N/A   Scattered Clouds
11:35 PM 31.3 °F 25.6 °F 21.0 °F 66% 30.28 in 10.0 mi South 5.8 mph - N/A   Scattered Clouds
11:55 PM 28.6 °F 21.5 °F 22.8 °F 79% 30.29 in 10.0 mi SW 6.9 mph - N/A   Scattered Clouds